Location: Big Humbug Creek
(37.8930°N, 120.2199°W)
Time: 15:26:50
(UTC+00:00)

Cosmos 773 Rocket - Pass Details

Date: 03 August 2024
Orbit: 742 x 775 km, 74.1° (Epoch: 09 September)

Event Time Altitude Azimuth Distance (km) Brightness Sun altitude
Exits shadow 12:31:31 - 205° (SSW) 2,971 6.6 -7.0°
Reaches altitude 10° 12:33:22 10° 208° (SSW) 2,256 5.9 -6.7°
Maximum altitude 12:38:26 64° 290° (WNW) 830 4.1 -5.8°
Drops below altitude 10° 12:43:35 10° 12° (NNE) 2,291 7.1 -4.9°
Sets 12:46:00 0° 15° (NNE) 3,226 7.9 -4.5°
